KB7YYZ Weather Reports


time (UTC)temp
C
wind
direction
speed
KPH
gust
KPH
rain 1hr
cm
rain 24hr
cm
rain mn
cm
humidity
%
barometer
mb
20190616210034 42 45 1.6 1.6 0.00 0.00 0.00 8 1018.8
20190616205540 42 45 1.6 12.9 0.00 0.00 0.00 8 1018.8
20190616205040 42 23 1.6 12.9 0.00 0.00 0.00 9 1019.0
20190616204534 42 23 3.2 4.8 0.00 0.00 0.00 9 1018.9
20190616204040 42 293 3.2 9.7 0.00 0.00 0.00 9 1018.9
20190616203537 42 338 3.2 9.7 0.00 0.00 0.00 9 1018.8
20190616203034 42 45 3.2 8.0 0.00 0.00 0.00 9 1018.8
20190616202540 42 293 3.2 11.3 0.00 0.00 0.00 9 1018.8
20190616202040 42 68 4.8 11.3 0.00 0.00 0.00 9 1018.7
20190616201541 42 45 4.8 8.0 0.00 0.00 0.00 8 1018.7
20190616201112 42 68 3.2 9.7 0.00 0.00 0.00 8 1018.8
20190616200034 42 180 3.2 9.7 0.00 0.00 0.00 8 1018.7
20190616195534 42 23 4.8 9.7 0.00 0.00 0.00 8 1018.7
20190616195040 42 23 3.2 9.7 0.00 0.00 0.00 8 1019.1
20190616194537 41 68 3.2 3.2 0.00 0.00 0.00 9 1019.1
20190616194034 41 338 3.2 6.4 0.00 0.00 0.00 9 1019.1
20190616193537 41 0 4.8 4.8 0.00 0.00 0.00 9 1019.1
20190616193040 41 338 4.8 9.7 0.00 0.00 0.00 9 1019.1
20190616192534 41 270 4.8 8.0 0.00 0.00 0.00 11 1019.1
20190616192040 41 315 3.2 9.7 0.00 0.00 0.00 11 1019.1
20190616191540 42 338 3.2 9.7 0.00 0.00 0.00 9 1019.1
20190616191034 42 0 3.2 1.6 0.00 0.00 0.00 9 1019.3
20190616190534 42 0 3.2 3.2 0.00 0.00 0.00 9 1019.2
20190616190034 42 90 3.2 9.7 0.00 0.00 0.00 9 1019.2
20190616185535 41 23 3.2 9.7 0.00 0.00 0.00 11 1019.2
20190616185040 41 68 4.8 6.4 0.00 0.00 0.00 11 1019.5
20190616184534 41 68 4.8 11.3 0.00 0.00 0.00 11 1019.5
20190616184037 41 135 4.8 11.3 0.00 0.00 0.00 11 1019.5
20190616183537 41 23 3.2 8.0 0.00 0.00 0.00 11 1019.4
20190616183040 41 0 1.6 4.8 0.00 0.00 0.00 12 1019.9
20190616182537 41 135 3.2 4.8 0.00 0.00 0.00 12 1019.9
20190616182037 41 45 3.2 4.8 0.00 0.00 0.00 12 1019.9
20190616181534 41 68 3.2 6.4 0.00 0.00 0.00 12 1019.8
20190616181034 41 270 3.2 6.4 0.00 0.00 0.00 12 1020.0
20190616180540 41 0 3.2 4.8 0.00 0.00 0.00 12 1020.0
20190616180034 41 68 3.2 9.7 0.00 0.00 0.00 12 1019.9
20190616175537 41 68 1.6 6.4 0.00 0.00 0.00 13 1019.9
20190616175034 41 23 3.2 3.2 0.00 0.00 0.00 13 1020.3
20190616174537 41 270 4.8 11.3 0.00 0.00 0.00 13 1020.3
20190616174040 41 45 4.8 11.3 0.00 0.00 0.00 13 1020.3
20190616173540 40 0 3.2 11.3 0.00 0.00 0.00 13 1020.3
20190616173037 40 45 3.2 8.0 0.00 0.00 0.00 13 1020.0
20190616172534 40 23 4.8 8.0 0.00 0.00 0.00 14 1020.0
20190616172034 40 270 4.8 8.0 0.00 0.00 0.00 14 1020.0
20190616171534 39 315 3.2 6.4 0.00 0.00 0.00 14 1019.9
20190616171040 38 225 4.8 8.0 0.00 0.00 0.00 14 1019.9
20190616170534 38 315 4.8 11.3 0.00 0.00 0.00 14 1019.9
20190616170040 38 270 3.2 8.0 0.00 0.00 0.00 15 1019.9
20190616165534 38 338 4.8 8.0 0.00 0.00 0.00 15 1019.9
20190616165040 38 293 4.8 9.7 0.00 0.00 0.00 15 1019.9
20190616164540 38 315 6.4 8.0 0.00 0.00 0.00 16 1019.9
20190616164037 38 315 6.4 8.0 0.00 0.00 0.00 17 1019.9
20190616163534 37 315 4.8 11.3 0.00 0.00 0.00 17 1019.9
20190616163040 37 338 6.4 12.9 0.00 0.00 0.00 17 1019.6
20190616162040 37 338 6.4 14.5 0.00 0.00 0.00 17 1019.6
20190616161540 37 23 6.4 9.7 0.00 0.00 0.00 18 1019.6
20190616161034 37 315 6.4 14.5 0.00 0.00 0.00 17 1019.9
20190616160537 37 315 6.4 8.0 0.00 0.00 0.00 18 1019.9
20190616160037 37 203 6.4 11.3 0.00 0.00 0.00 17 1019.9
20190616155537 36 90 6.4 12.9 0.00 0.00 0.00 18 1019.9
20190616155040 36 338 6.4 12.9 0.00 0.00 0.00 18 1019.9
20190616154534 36 315 6.4 11.3 0.00 0.00 0.00 18 1019.8
20190616154040 36 225 4.8 11.3 0.00 0.00 0.00 18 1019.8
20190616153540 36 338 4.8 11.3 0.00 0.00 0.00 18 1019.8
20190616153059 36 23 6.4 11.3 0.00 0.00 0.00 19 1019.8
20190616152540 36 338 8.0 11.3 0.00 0.00 0.00 19 1019.8
20190616152034 35 338 8.0 11.3 0.00 0.00 0.00 18 1019.8
20190616151534 36 315 8.0 11.3 0.00 0.00 0.00 19 1019.8
20190616151034 35 315 6.4 9.7 0.00 0.00 0.00 19 1019.7
20190616150534 35 338 6.4 11.3 0.00 0.00 0.00 19 1019.7
20190616150034 35 270 6.4 9.7 0.00 0.00 0.00 20 1019.7
20190616145540 34 338 3.2 8.0 0.00 0.00 0.00 21 1019.7
20190616145034 34 0 1.6 4.8 0.00 0.00 0.00 21 1019.7
20190616144534 33 338 1.6 6.4 0.00 0.00 0.00 22 1019.7
20190616144037 33 0 1.6 4.8 0.00 0.00 0.00 22 1019.7
20190616143540 33 68 3.2 4.8 0.00 0.00 0.00 24 1019.7
20190616143037 32 293 3.2 6.4 0.00 0.00 0.00 24 1019.7
20190616142537 32 315 1.6 4.8 0.00 0.00 0.00 24 1019.8
20190616142037 32 315 1.6 4.8 0.00 0.00 0.00 24 1019.8
20190616141534 31 338 1.6 4.8 0.00 0.00 0.00 25 1019.8
20190616141034 31 315 0.0 4.8 0.00 0.00 0.00 26 1020.1
20190616140537 30 23 0.0 0.0 0.00 0.00 0.00 27 1020.1
20190616140034 30 338 0.0 0.0 0.00 0.00 0.00 28 1020.2
20190616135537 28 315 0.0 0.0 0.00 0.00 0.00 28 1020.2
20190616135034 28 270 0.0 0.0 0.00 0.00 0.00 29 1019.5
20190616134540 27 248 0.0 0.0 0.00 0.00 0.00 29 1019.5
20190616134037 26 270 0.0 0.0 0.00 0.00 0.00 30 1019.5
20190616133537 26 45 0.0 0.0 0.00 0.00 0.00 31 1019.5
20190616133040 25 203 0.0 1.6 0.00 0.00 0.00 32 1019.6
20190616132540 24 225 0.0 3.2 0.00 0.00 0.00 33 1019.7
20190616132034 23 203 0.0 3.2 0.00 0.00 0.00 33 1019.7
20190616131534 23 270 0.0 1.6 0.00 0.00 0.00 33 1019.7
20190616131037 22 225 0.0 0.0 0.00 0.00 0.00 34 1019.5
20190616130537 22 225 0.0 1.6 0.00 0.00 0.00 34 1019.6
20190616130040 21 225 0.0 1.6 0.00 0.00 0.00 35 1019.6
20190616125534 21 248 1.6 1.6 0.00 0.00 0.00 35 1019.6
20190616125037 21 270 1.6 4.8 0.00 0.00 0.00 35 1019.6
20190616124534 21 270 0.0 3.2 0.00 0.00 0.00 35 1019.7
20190616124034 21 248 0.0 1.6 0.00 0.00 0.00 35 1019.7
20190616123534 21 248 0.0 0.0 0.00 0.00 0.00 35 1019.7
20190616123037 21 0 0.0 1.6 0.00 0.00 0.00 34 1019.6
20190616122534 21 270 0.0 0.0 0.00 0.00 0.00 34 1019.7
20190616122040 21 270 0.0 0.0 0.00 0.00 0.00 33 1019.7
20190616121540 21 248 0.0 1.6 0.00 0.00 0.00 33 1019.8
20190616121037 21 315 1.6 3.2 0.00 0.00 0.00 33 1019.5
20190616120537 21 270 1.6 3.2 0.00 0.00 0.00 33 1019.5
20190616120037 21 248 1.6 3.2 0.00 0.00 0.00 33 1019.6
20190616115540 22 248 1.6 3.2 0.00 0.00 0.00 33 1019.6
20190616115034 22 248 1.6 3.2 0.00 0.00 0.00 32 1019.7
20190616114540 22 270 1.6 3.2 0.00 0.00 0.00 32 1019.7
20190616114037 22 248 3.2 4.8 0.00 0.00 0.00 32 1019.8
20190616113534 22 248 3.2 4.8 0.00 0.00 0.00 32 1019.8
20190616113034 22 248 3.2 4.8 0.00 0.00 0.00 32 1019.8
20190616112537 22 248 3.2 4.8 0.00 0.00 0.00 32 1019.8
20190616112037 22 225 1.6 3.2 0.00 0.00 0.00 32 1019.9
20190616111534 22 90 1.6 3.2 0.00 0.00 0.00 32 1019.9
20190616111040 22 248 3.2 4.8 0.00 0.00 0.00 32 1019.6
20190616110534 22 248 1.6 3.2 0.00 0.00 0.00 33 1019.6
20190616110040 22 248 0.0 1.6 0.00 0.00 0.00 33 1019.7
20190616105537 22 248 0.0 1.6 0.00 0.00 0.00 33 1019.7
20190616105034 22 248 0.0 0.0 0.00 0.00 0.00 33 1019.9
20190616104537 22 225 0.0 0.0 0.00 0.00 0.00 32 1020.0
20190616104040 22 248 0.0 0.0 0.00 0.00 0.00 32 1020.0
20190616103540 22 23 0.0 0.0 0.00 0.00 0.00 31 1020.0
20190616103040 22 338 0.0 0.0 0.00 0.00 0.00 31 1019.8
20190616102537 22 225 0.0 1.6 0.00 0.00 0.00 31 1019.9
20190616102037 23 248 0.0 1.6 0.00 0.00 0.00 31 1019.9
20190616101534 23 203 0.0 0.0 0.00 0.00 0.00 31 1019.9
20190616101034 23 248 1.6 4.8 0.00 0.00 0.00 31 1019.8
20190616100534 23 225 3.2 4.8 0.00 0.00 0.00 31 1019.8
20190616100037 23 248 1.6 4.8 0.00 0.00 0.00 31 1019.9
20190616095537 23 248 0.0 3.2 0.00 0.00 0.00 31 1019.9
20190616095040 23 270 0.0 0.0 0.00 0.00 0.00 30 1020.1
20190616094540 23 315 0.0 0.0 0.00 0.00 0.00 30 1020.1
20190616094040 23 338 0.0 0.0 0.00 0.00 0.00 29 1020.1
20190616093534 23 248 1.6 3.2 0.00 0.00 0.00 29 1020.2
20190616093034 23 225 1.6 3.2 0.00 0.00 0.00 29 1020.1
20190616092537 23 225 0.0 0.0 0.00 0.00 0.00 29 1020.1
20190616092034 23 248 1.6 3.2 0.00 0.00 0.00 30 1020.2
20190616091534 24 225 1.6 3.2 0.00 0.00 0.00 30 1020.2
20190616091034 24 225 1.6 3.2 0.00 0.00 0.00 30 1020.6
20190616090537 24 248 1.6 3.2 0.00 0.00 0.00 30 1020.6
20190616090037 24 248 0.0 3.2 0.00 0.00 0.00 30 1020.6
20190616085537 24 248 0.0 0.0 0.00 0.00 0.00 30 1020.7
20190616085034 24 270 0.0 0.0 0.00 0.00 0.00 29 1020.7
20190616084534 24 315 0.0 0.0 0.00 0.00 0.00 29 1020.7
20190616084040 24 270 0.0 3.2 0.00 0.00 0.00 29 1020.8
20190616083534 25 270 0.0 0.0 0.00 0.00 0.00 29 1020.8
20190616083034 25 270 0.0 0.0 0.00 0.00 0.00 28 1020.9
20190616082534 25 248 0.0 0.0 0.00 0.00 0.00 28 1020.9
20190616082040 25 225 0.0 0.0 0.00 0.00 0.00 28 1021.0
20190616081537 25 225 0.0 0.0 0.00 0.00 0.00 28 1021.0
20190616081034 25 248 0.0 0.0 0.00 0.00 0.00 28 1021.1
20190616080534 25 248 0.0 0.0 0.00 0.00 0.00 28 1021.1
20190616080034 25 270 0.0 0.0 0.00 0.00 0.00 27 1021.2
20190616075534 26 270 0.0 0.0 0.00 0.00 0.00 27 1021.2
20190616075034 26 248 0.0 0.0 0.00 0.00 0.00 26 1021.4
20190616074540 26 225 0.0 0.0 0.00 0.00 0.00 26 1021.4
20190616074037 26 225 0.0 0.0 0.00 0.00 0.00 26 1021.4
20190616073534 26 203 0.0 0.0 0.00 0.00 0.00 26 1021.4
20190616073040 26 225 0.0 0.0 0.00 0.00 0.00 26 1021.7
20190616072540 27 248 0.0 0.0 0.00 0.00 0.00 24 1021.7
20190616072040 27 225 0.0 1.6 0.00 0.00 0.00 24 1021.7
20190616071534 27 113 0.0 1.6 0.00 0.00 0.00 24 1021.7
20190616071037 27 248 0.0 3.2 0.00 0.00 0.00 23 1021.8
20190616070534 28 225 1.6 3.2 0.00 0.00 0.00 23 1021.8
20190616070037 28 270 1.6 4.8 0.00 0.00 0.00 23 1021.9
20190616065540 28 203 3.2 4.8 0.00 0.00 0.00 23 1021.9
20190616065037 28 225 3.2 4.8 0.00 0.00 0.00 23 1021.8
20190616064537 28 225 3.2 6.4 0.00 0.00 0.00 23 1021.9
20190616064034 28 180 1.6 4.8 0.00 0.00 0.00 23 1021.9
20190616063534 28 203 1.6 3.2 0.00 0.00 0.00 23 1021.9
20190616063037 28 225 3.2 4.8 0.00 0.00 0.00 23 1022.0
20190616062540 28 180 1.6 3.2 0.00 0.00 0.00 23 1022.0
20190616062034 28 180 1.6 3.2 0.00 0.00 0.00 23 1022.0
20190616061540 28 113 1.6 3.2 0.00 0.00 0.00 23 1022.1
20190616061034 28 158 1.6 3.2 0.00 0.00 0.00 23 1022.3
20190616060534 28 248 0.0 4.8 0.00 0.00 0.00 23 1022.3
20190616060040 28 293 0.0 4.8 0.00 0.00 0.00 23 1022.3
20190616055534 28 180 0.0 1.6 0.00 0.00 0.00 22 1022.3
20190616055040 29 135 0.0 1.6 0.00 0.00 0.00 22 1022.5
20190616054540 29 225 0.0 0.0 0.00 0.00 0.00 22 1022.5
20190616054040 30 270 0.0 3.2 0.00 0.00 0.00 22 1022.5
20190616053537 30 135 1.6 3.2 0.00 0.00 0.00 22 1022.5
20190616053040 30 113 3.2 4.8 0.00 0.00 0.00 22 1022.4
20190616052540 30 45 3.2 6.4 0.00 0.00 0.00 22 1022.4
20190616052034 30 113 3.2 6.4 0.00 0.00 0.00 21 1022.5
20190616051534 30 113 1.6 4.8 0.00 0.00 0.00 20 1022.5
20190616051040 30 113 3.2 4.8 0.00 0.00 0.00 20 1022.4
20190616050534 30 68 3.2 4.8 0.00 0.00 0.00 19 1022.4
20190616050040 30 315 3.2 4.8 0.00 0.00 0.00 17 1022.4
20190616045534 30 113 1.6 4.8 0.00 0.00 0.00 16 1022.4
20190616045034 30 68 1.6 3.2 0.00 0.00 0.00 16 1022.1
20190616044540 30 45 1.6 4.8 0.00 0.00 0.00 15 1022.1
20190616044037 29 113 3.2 4.8 0.00 0.00 0.00 15 1022.1
20190616043534 29 135 3.2 6.4 0.00 0.00 0.00 15 1022.1
20190616043040 30 135 1.6 9.7 0.00 0.00 0.00 14 1021.6
20190616042537 30 225 0.0 1.6 0.00 0.00 0.00 13 1021.6
20190616042040 30 203 0.0 3.2 0.00 0.00 0.00 11 1021.6
20190616041534 30 203 0.0 1.6 0.00 0.00 0.00 11 1021.6
20190616041037 30 203 0.0 3.2 0.00 0.00 0.00 11 1021.6
20190616040540 30 225 1.6 3.2 0.00 0.00 0.00 11 1021.6
20190616040034 30 225 1.6 3.2 0.00 0.00 0.00 11 1021.6
20190616035537 31 203 1.6 3.2 0.00 0.00 0.00 11 1021.6
20190616035040 31 248 1.6 3.2 0.00 0.00 0.00 11 1021.2
20190616034540 31 225 0.0 1.6 0.00 0.00 0.00 11 1021.2
20190616034034 31 248 0.0 1.6 0.00 0.00 0.00 11 1021.2
20190616033540 31 248 0.0 1.6 0.00 0.00 0.00 11 1021.2
20190616033034 31 225 0.0 1.6 0.00 0.00 0.00 10 1021.1
20190616032534 32 203 1.6 1.6 0.00 0.00 0.00 10 1021.1
20190616032034 32 225 1.6 3.2 0.00 0.00 0.00 10 1021.1
20190616031540 32 180 1.6 3.2 0.00 0.00 0.00 10 1021.1
20190616031037 32 180 1.6 3.2 0.00 0.00 0.00 10 1020.8
20190616030537 33 203 1.6 1.6 0.00 0.00 0.00 9 1020.8
20190616030037 33 180 1.6 3.2 0.00 0.00 0.00 9 1020.8
20190616025540 33 135 1.6 4.8 0.00 0.00 0.00 9 1020.8
20190616025034 33 158 1.6 4.8 0.00 0.00 0.00 9 1021.4
20190616024537 34 158 1.6 3.2 0.00 0.00 0.00 8 1021.4
20190616024040 34 135 1.6 3.2 0.00 0.00 0.00 8 1021.4
20190616023540 35 158 1.6 3.2 0.00 0.00 0.00 8 1021.4
20190616023040 35 158 1.6 3.2 0.00 0.00 0.00 8 1020.6
20190616022540 36 158 1.6 1.6 0.00 0.00 0.00 7 1020.6
20190616022040 36 113 3.2 3.2 0.00 0.00 0.00 7 1020.6
20190616021540 36 135 3.2 6.4 0.00 0.00 0.00 7 1020.6
20190616021037 37 90 3.2 9.7 0.00 0.00 0.00 7 1020.8
20190616020537 37 0 3.2 9.7 0.00 0.00 0.00 7 1020.8
20190616020037 38 135 1.6 3.2 0.00 0.00 0.00 5 1020.8
20190616015537 39 180 1.6 3.2 0.00 0.00 0.00 5 1020.8
20190616015037 40 135 1.6 3.2 0.00 0.00 0.00 5 1020.6
20190616014540 40 180 3.2 4.8 0.00 0.00 0.00 4 1020.5
20190616014037 41 180 4.8 6.4 0.00 0.00 0.00 4 1020.5
20190616013540 40 135 4.8 4.8 0.00 0.00 0.00 4 1020.5
20190616013040 40 180 6.4 8.0 0.00 0.00 0.00 4 1020.0
20190616012537 40 158 8.0 11.3 0.00 0.00 0.00 5 1020.0
20190616012034 40 180 6.4 9.7 0.00 0.00 0.00 4 1020.0
20190616011534 41 113 3.2 9.7 0.00 0.00 0.00 4 1019.9
20190616011037 41 68 3.2 6.4 0.00 0.00 0.00 4 1019.8
20190616010540 40 158 3.2 6.4 0.00 0.00 0.00 5 1019.7
20190616010040 39 113 4.8 6.4 0.00 0.00 0.00 5 1019.7
20190616005537 40 68 3.2 9.7 0.00 0.00 0.00 5 1019.7
20190616005034 41 45 3.2 9.7 0.00 0.00 0.00 5 1019.7
20190616004534 40 270 3.2 8.0 0.00 0.00 0.00 5 1019.7
20190616004040 41 113 3.2 8.0 0.00 0.00 0.00 5 1019.7
20190616003534 41 68 4.8 4.8 0.00 0.00 0.00 4 1019.6
20190616003040 41 113 6.4 11.3 0.00 0.00 0.00 4 1019.6
20190616002540 42 68 6.4 9.7 0.00 0.00 0.00 4 1019.6
20190616002037 42 135 6.4 14.5 0.00 0.00 0.00 4 1019.5
20190616001540 43 90 4.8 6.4 0.00 0.00 0.00 4 1019.5
20190616001037 42 45 4.8 8.0 0.00 0.00 0.00 4 1019.7
20190616000534 42 158 4.8 12.9 0.00 0.00 0.00 4 1019.6
20190616000040 43 113 4.8 12.9 0.00 0.00 0.00 4 1019.6
20190615235540 42 135 6.4 6.4 0.00 0.00 0.00 4 1019.6
20190615235037 42 90 8.0 12.9 0.00 0.00 0.00 4 1019.9
20190615234537 42 45 8.0 9.7 0.00 0.00 0.00 4 1019.8
20190615234034 42 68 6.4 16.1 0.00 0.00 0.00 4 1019.8
20190615233537 43 180 4.8 16.1 0.00 0.00 0.00 4 1019.8
20190615233034 43 135 3.2 9.7 0.00 0.00 0.00 4 1019.6
20190615232540 42 248 4.8 9.7 0.00 0.00 0.00 4 1019.6
20190615232037 41 180 8.0 11.3 0.00 0.00 0.00 4 1019.5
20190615231534 41 158 6.4 14.5 0.00 0.00 0.00 4 1019.5
20190615231040 42 113 4.8 14.5 0.00 0.00 0.00 4 1019.7
20190615230537 41 113 3.2 8.0 0.00 0.00 0.00 4 1019.7
20190615230034 41 248 1.6 4.8 0.00 0.00 0.00 5 1019.7
20190615225534 40 158 1.6 8.0 0.00 0.00 0.00 5 1019.6
20190615225034 40 158 1.6 8.0 0.00 0.00 0.00 4 1019.9
20190615224534 40 113 1.6 6.4 0.00 0.00 0.00 4 1019.9
20190615224034 41 45 3.2 4.8 0.00 0.00 0.00 4 1019.8
20190615223534 41 315 4.8 6.4 0.00 0.00 0.00 4 1019.8
20190615223034 42 0 4.8 9.7 0.00 0.00 0.00 4 1020.1
20190615222540 41 68 3.2 9.7 0.00 0.00 0.00 4 1020.1
20190615222037 41 113 3.2 6.4 0.00 0.00 0.00 4 1020.1
20190615221537 41 315 4.8 8.0 0.00 0.00 0.00 4 1020.0
20190615221040 41 23 4.8 9.7 0.00 0.00 0.00 4 1020.3
20190615220540 41 180 4.8 9.7 0.00 0.00 0.00 4 1020.3
20190615220034 41 113 6.4 11.3 0.00 0.00 0.00 4 1020.2
20190615215537 41 113 6.4 9.7 0.00 0.00 0.00 4 1020.2
20190615215034 41 158 8.0 9.7 0.00 0.00 0.00 4 1020.5
20190615214540 41 135 4.8 11.3 0.00 0.00 0.00 4 1020.4